Tracking 18980 objects as of 23-Feb-2018
HD Live streaming from Space Station
objects crossing your sky now

SL-12 R/B(AUX MOTOR)

Track SL-12 R/B(AUX MOTOR) now!
10-day predictions


NORAD ID: 36407
Int'l Code: 2010-007H
Perigee: 650.6 km
Apogee: 18,886.1 km
Inclination: 65.1 °
Period: 340.1 minutes
Semi major axis: 16139 km
RCS: 0.5885 m2 (medium)
Launch date: March 1, 2010
Source: Commonwealth of Independent States (former USSR) (CIS)
Launch site: TYURATAM MISSILE AND SPACE COMPLEX (TTMTR)

Note: This is a ROCKET BODY
aabbcc
Your satellite tracking list
Your tracking list is empty




NASA's NSSDC Master Catalog

Two Line Element Set (TLE):
1 36407U 10007H   18053.92635682 +.00000060 +00000-0 -11987-3 0  9992
2 36407 065.0844 208.3164 5649368 050.2113 347.3115 04.23421623122620
Source of the keplerian elements: AFSPC